Retour au catalogue

YINHE 2-04

ActifCommunicationsLEO
NORAD 51949·PAYLOAD·🇨🇳 China
Ce nom de satellite n'a pas encore été confirmé par des sources officielles.

Lancé Mar 5, 2022 depuis Xichang Satellite Launch Center

Loading…

Prochains Passages (prochaines 24 heures)

TLE

FraisSource: Space-Track

Époque: Sep 14, 2026, 23:33 UTC

1 51949U 22023D   26257.98152966  .00013805  00000-0  54056-3 0  9995
2 51949  63.4475 326.5128 0135074 352.8472   7.0708 15.17970904251347

Suivez YINHE 2-04 en temps réel avec AllMySat

Download on the App Store